カタログに戻る

STARLINK-32333

運用中通信VLEO
NORAD 61626·PAYLOAD·🇺🇸 United States

打ち上げ Oct 23, 2024 から Cape Canaveral Space Force Station

Loading…

次のパス (今後24時間)

TLE

最新Source: CelesTrak SupGP

元期: Sep 15, 2026, 03:24 UTC

1 61626C 24191F   26258.14215278  .00037667  00000+0  13644-2 0  2587
2 61626  42.9996 168.2346 0001451 272.8554 260.9041 15.27556264    12

AllMySatでSTARLINK-32333をリアルタイム追跡

Download on the App Store